FW0100 Weather Reports


Display with metric or nautical units.
time (UTC)temp
F
wind
direction
speed
MPH
gust
MPH
rain 1hr
in
rain 24hr
in
rain mn
in
humidity
%
barometer
mb
20190425163131 71 108 2.0 9.0 0.00 0.00 0.00 76 1012.5
20190425161816 71 165 3.0 7.0 0.00 0.00 0.00 78 1012.4
20190425160122 70 191 1.0 6.0 0.00 0.00 0.00 80 1012.7
20190425154637 71 141 3.0 7.0 0.00 0.00 0.00 79 1012.5
20190425153140 70 188 2.0 5.0 0.00 0.00 0.00 80 1012.5
20190425151556 70 154 1.0 8.0 0.00 0.00 0.00 80 1012.9
20190425150129 71 262 4.0 8.0 0.00 0.00 0.00 79 1013.0
20190425144549 70 174 0.0 5.0 0.00 0.00 0.00 81 1013.0
20190425143059 69 162 2.0 6.0 0.00 0.00 0.00 84 1013.0
20190425141530 67 233 3.0 7.0 0.00 0.00 0.00 86 1013.3
20190425140055 67 168 1.0 6.0 0.00 0.00 0.00 87 1013.5
20190425134618 66 210 0.0 4.0 0.00 0.00 0.00 89 1013.7
20190425133033 64 264 2.0 5.0 0.00 0.00 0.00 91 1013.7
20190425131531 64 245 0.0 4.0 0.00 0.00 0.00 92 1013.4
20190425130034 63 214 0.0 0.0 0.00 0.00 0.00 93 1013.5
20190425124523 62 191 0.0 0.0 0.00 0.00 0.00 92 1013.3
20190425123148 62 193 0.0 1.0 0.00 0.00 0.00 92 1013.4
20190425121626 61 131 0.0 1.0 0.00 0.00 0.00 94 1013.0
20190425120138 60 158 0.0 1.0 0.00 0.00 0.00 95 1013.2
20190425114621 58 118 0.0 2.0 0.00 0.00 0.00 97 1013.3
20190425113131 57 115 0.0 1.0 0.00 0.00 0.00 97 1013.4
20190425111720 57 110 0.0 1.0 0.00 0.00 0.00 97 1013.4
20190425110128 56 153 0.0 0.0 0.00 0.00 0.00 97 1013.4
20190425104627 56 116 0.0 0.0 0.00 0.00 0.00 97 1013.2
20190425103227 55 116 0.0 0.0 0.00 0.00 0.00 97 1013.1
20190425101625 55 115 0.0 0.0 0.00 0.00 0.00 96 1013.0
20190425100110 56 115 0.0 0.0 0.00 0.00 0.00 96 1012.9
20190425094621 56 118 0.0 0.0 0.00 0.00 0.00 95 1012.9
20190425093209 56 117 0.0 0.0 0.00 0.00 0.00 96 1012.8
20190425091622 56 118 0.0 0.0 0.00 0.00 0.00 96 1012.7
20190425090121 56 118 0.0 0.0 0.00 0.00 0.00 95 1012.7
20190425084620 56 117 0.0 0.0 0.00 0.00 0.00 95 1012.6
20190425083114 57 122 0.0 0.0 0.00 0.00 0.00 94 1012.7
20190425081551 57 122 0.0 0.0 0.00 0.00 0.00 94 1012.7
20190425080107 58 122 0.0 0.0 0.00 0.00 0.00 94 1012.8
20190425074546 58 122 0.0 0.0 0.00 0.00 0.00 94 1012.8
20190425073128 57 126 0.0 0.0 0.00 0.00 0.00 94 1012.8
20190425071550 57 113 0.0 0.0 0.00 0.00 0.00 94 1012.9
20190425070054 57 113 0.0 0.0 0.00 0.00 0.00 93 1013.1
20190425064548 58 112 0.0 0.0 0.00 0.00 0.00 93 1013.2
20190425063117 58 128 0.0 1.0 0.00 0.00 0.00 92 1013.3
20190425061609 59 126 0.0 0.0 0.00 0.00 0.00 91 1013.4
20190425060051 59 131 0.0 1.0 0.00 0.00 0.00 90 1013.4
20190425054530 60 131 0.0 0.0 0.00 0.00 0.00 88 1013.5
20190425053027 62 129 0.0 1.0 0.00 0.00 0.00 85 1013.6
20190425051517 63 200 0.0 2.0 0.00 0.00 0.00 83 1013.5
20190425050015 63 150 0.0 2.0 0.00 0.00 0.00 82 1013.6
20190425044511 64 120 0.0 2.0 0.00 0.00 0.00 80 1013.5
20190425043029 64 231 0.0 4.0 0.00 0.00 0.00 79 1013.5
20190425041503 64 255 0.0 2.0 0.00 0.00 0.00 79 1013.6
20190425040134 64 226 0.0 4.0 0.00 0.00 0.00 81 1013.7
20190425040002 64 136 0.0 4.0 0.00 0.00 0.00 81 1013.7
20190425034718 62 214 0.0 0.0 0.00 0.00 0.00 84 1013.7
20190425033243 62 120 0.0 0.0 0.00 0.00 0.00 82 1013.5
20190425031644 62 120 0.0 0.0 0.00 0.00 0.00 81 1013.4
20190425030144 63 139 0.0 0.0 0.00 0.00 0.00 79 1013.4
20190425024730 64 157 0.0 0.0 0.00 0.00 0.00 77 1013.4
20190425023143 65 153 0.0 1.0 0.00 0.00 0.00 75 1013.4
20190425021650 65 205 0.0 1.0 0.00 0.00 0.00 72 1013.3
20190425020156 65 187 0.0 0.0 0.00 0.00 0.00 72 1013.4
20190425014631 66 125 0.0 1.0 0.00 0.00 0.00 70 1013.4
20190425013150 67 193 0.0 1.0 0.00 0.00 0.00 65 1013.3
20190425011707 67 197 0.0 0.0 0.00 0.00 0.00 64 1013.2
20190425010147 68 198 0.0 0.0 0.00 0.00 0.00 61 1012.9
20190425004651 69 198 0.0 0.0 0.00 0.00 0.00 58 1012.8
20190425003206 71 191 0.0 0.0 0.00 0.00 0.00 56 1012.9
20190425001745 72 125 0.0 1.0 0.00 0.00 0.00 53 1012.7
20190425000202 74 200 0.0 1.0 0.00 0.00 0.00 49 1012.8
20190424234628 75 185 0.0 2.0 0.00 0.00 0.00 47 1012.8
20190424233112 77 229 0.0 4.0 0.00 0.00 0.00 44 1012.5
20190424231641 78 176 2.0 4.0 0.00 0.00 0.00 42 1012.4
20190424230204 79 234 1.0 7.0 0.00 0.00 0.00 40 1012.2
20190424224657 81 152 1.0 7.0 0.00 0.00 0.00 38 1012.4
20190424223123 82 171 2.0 8.0 0.00 0.00 0.00 37 1012.7
20190424221634 82 201 2.0 7.0 0.00 0.00 0.00 36 1012.8
20190424220255 82 203 4.0 10.0 0.00 0.00 0.00 36 1012.8
20190424214555 83 239 4.0 10.0 0.00 0.00 0.00 35 1012.8
20190424213129 83 265 2.0 7.0 0.00 0.00 0.00 38 1012.8
20190424211659 83 224 2.0 5.0 0.00 0.00 0.00 38 1012.8
20190424210150 83 240 1.0 8.0 0.00 0.00 0.00 38 1012.5
20190424204551 83 173 4.0 9.0 0.00 0.00 0.00 35 1012.8
20190424203127 83 221 2.0 8.0 0.00 0.00 0.00 36 1012.9
20190424201629 83 269 2.0 7.0 0.00 0.00 0.00 36 1013.0
20190424200141 82 230 2.0 11.0 0.00 0.00 0.00 37 1013.1
20190424194541 82 271 4.0 10.0 0.00 0.00 0.00 40 1013.4
20190424193120 81 162 2.0 6.0 0.00 0.00 0.00 39 1013.6
20190424191542 81 292 5.0 12.0 0.00 0.00 0.00 39 1013.7
20190424190110 82 225 0.0 8.0 0.00 0.00 0.00 41 1013.8
20190424184539 82 262 2.0 8.0 0.00 0.00 0.00 41 1014.1
20190424183119 80 168 3.0 12.0 0.00 0.00 0.00 45 1014.5
20190424181525 80 167 2.0 9.0 0.00 0.00 0.00 47 1014.7
20190424180136 79 214 1.0 4.0 0.00 0.00 0.00 51 1015.0
20190424174610 77 226 0.0 8.0 0.00 0.00 0.00 53 1015.3
20190424173102 79 195 2.0 9.0 0.00 0.00 0.00 48 1015.4
20190424171631 79 269 0.0 6.0 0.00 0.00 0.00 46 1015.8
20190424170125 78 228 0.0 6.0 0.00 0.00 0.00 49 1015.8
20190424164644 79 124 0.0 10.0 0.00 0.00 0.00 52 1016.1